Location: Unspecified
(43.4354°N, 0.0000°E)
Time: 17:16:28
(UTC+00:00)

A-11 Canister half - Pass Details

Date: 28 June 2019
Orbit: 1514 x 1685 km, 47.2° (Epoch: 17 July)

Event Time Altitude Azimuth Distance (km) Brightness Sun altitude
Rises 09:08:12 0° 235° (SW) 4,925 11.4 48.9°
Reaches altitude 10° 09:11:23 10° 233° (SW) 3,930 11.0 49.5°
Maximum altitude 09:21:27 76° 151° (SSE) 1,693 10.6 51.2°
Drops below altitude 10° 09:31:13 10° 68° (ENE) 3,826 11.7 52.9°
Sets 09:34:16 0° 67° (ENE) 4,790 12.0 53.4°
